Weather reports worldwide

Advertisment
Shap, United Kingdom (3225): temperature & dewpoint: 18.11.2020 03:00:00 - 24.11.2020 03:00:00 (GMT)Shap, United Kingdom (3225): temperature -20cm & temperature -100cm: 18.11.2020 03:00:00 - 24.11.2020 03:00:00 (GMT)Shap, United Kingdom (3225): wind speed & gusts: 18.11.2020 03:00:00 - 24.11.2020 03:00:00 (GMT)Shap, United Kingdom (3225): wind direction: 18.11.2020 03:00:00 - 24.11.2020 03:00:00 (GMT)Shap, United Kingdom (3225): reduced air pressure: 18.11.2020 03:00:00 - 24.11.2020 03:00:00 (GMT)Shap, United Kingdom (3225): visibility: 18.11.2020 03:00:00 - 24.11.2020 03:00:00 (GMT)Shap, United Kingdom (3225): sunshine duration: 18.11.2020 03:00:00 - 24.11.2020 03:00:00 (GMT)Shap, United Kingdom (3225): precipitation: 18.11.2020 03:00:00 - 24.11.2020 03:00:00 (GMT)
Date & Time tt [°C] td [°C] tt -20cm [°C] tt -100cm [°C] ff [km/h] ff [kn] fx [km/h] fx [kn] dd ppp [hPa] vv [km] sd [min] rr [mm]
24.11.2020 03:00:00 9,9 9,2 - - 50 27 76 41 SW 1012,0 13 0 0,4
24.11.2020 02:00:00 10,1 8,9 - - 48 26 76 41 SW 1012,3 2,1 0 2,0
24.11.2020 01:00:00 10,0 8,8 - - 50 27 74 40 SW 1012,9 6 0 1,2
24.11.2020 00:00:00 10,0 8,8 - - 50 27 78 42 SW 1013,2 7 - 1,6
23.11.2020 23:00:00 10,0 8,9 - - 52 28 80 43 SW 1013,8 4,2 0 2,0
23.11.2020 22:00:00 9,9 8,7 - - 52 28 76 41 SW 1014,0 2,8 0 1,6
23.11.2020 21:00:00 9,6 8,8 - - 54 29 87 47 SW 1014,5 1,7 0 0,4
23.11.2020 20:00:00 9,6 8,7 - - 50 27 80 43 SW 1014,8 2,8 0 0,4
23.11.2020 19:00:00 9,6 8,6 - - 44 24 63 34 SW 1015,0 1,6 0 1,6
23.11.2020 18:00:00 8,1 7,5 - - 29 16 46 25 S 1015,9 1,3 0 2,2
23.11.2020 17:00:00 7,0 6,5 - - 26 14 48 26 S 1016,8 1,8 0 1,0
23.11.2020 16:00:00 6,4 5,8 - - 35 19 55 30 SSW 1017,4 1,5 0 3,2
23.11.2020 15:00:00 6,1 5,3 - - 37 20 57 31 SSW 1017,6 0,9 0 1,2
23.11.2020 14:00:00 5,6 4,8 - - 34 18 48 26 SSW 1018,7 1,7 0 0,6
23.11.2020 13:00:00 5,5 4,3 - - 34 18 50 27 SSW 1020,0 4,6 0 0,2
23.11.2020 12:00:00 4,8 3,5 - - 29 16 46 25 SSW 1020,8 3,1 0 0,0
23.11.2020 11:00:00 4,8 3,3 - - 34 18 54 29 SSW 1021,9 35 0 0,0
23.11.2020 10:00:00 5,3 3,7 - - 28 15 - - SSW 1022,2 40 0 0,0
23.11.2020 09:00:00 5,4 3,5 7,9 9,2 15 8 - - SSW 1022,5 50 0 0,0
23.11.2020 08:00:00 4,0 2,8 - - 9 5 - - SSE 1022,5 50 0 0,0
23.11.2020 07:00:00 5,0 3,4 - - 13 7 - - SW 1023,8 45 0 0,0
23.11.2020 06:00:00 4,7 3,5 - - 11 6 - - SSE 1023,6 40 0 0,0
23.11.2020 05:00:00 4,1 2,9 - - 13 7 - - S 1024,3 40 0 0,0
23.11.2020 04:00:00 2,5 1,0 - - 5 3 - - WSW 1024,6 55 0 0,0
23.11.2020 03:00:00 4,8 2,7 - - 15 8 - - SW 1024,4 50 0 0,0
23.11.2020 02:00:00 4,6 3,1 - - 15 8 - - S 1024,7 50 0 0,0
23.11.2020 01:00:00 4,5 2,8 - - 16 9 - - SSW 1024,9 45 0 0,0
23.11.2020 00:00:00 3,4 2,4 - - 16 9 78 42 S 1025,0 40 - 0,0
22.11.2020 23:00:00 2,1 -0,1 - - 4 2 - - ESE 1024,9 65 0 0,0
22.11.2020 22:00:00 4,6 1,1 - - 13 7 - - W 1024,3 65 0 0,0
22.11.2020 21:00:00 4,7 2,2 - - 11 6 - - WSW 1024,3 55 0 0,0
22.11.2020 20:00:00 4,7 2,4 - - 8 4 - - WSW 1024,2 60 0 0,0
22.11.2020 19:00:00 3,2 2,1 - - 11 6 - - WSW 1024,3 60 0 0,0
22.11.2020 18:00:00 2,3 0,8 - - 4 2 - - W 1024,0 60 0 0,0
22.11.2020 17:00:00 2,4 1,2 - - 5 3 - - SSW 1023,8 65 0 0,0
22.11.2020 16:00:00 3,8 1,9 - - 5 3 - - WSW 1023,7 40 0 0,0
22.11.2020 15:00:00 5,2 2,2 - - 16 9 - - WSW 1023,5 60 0 0,2
22.11.2020 14:00:00 5,3 3,0 - - 9 5 - - WNW 1023,5 27 12 0,4
22.11.2020 13:00:00 6,2 1,9 - - 15 8 - - WSW 1023,7 7 36 0,0
22.11.2020 12:00:00 8,2 2,2 - - 8 4 - - W 1023,6 35 54 0,0
22.11.2020 11:00:00 7,6 1,2 - - 15 8 - - W 1023,8 45 54 0,0
22.11.2020 10:00:00 5,5 0,9 - - 16 9 - - W 1023,8 35 0 0,0
22.11.2020 09:00:00 5,7 1,0 8,4 9,2 15 8 - - W 1023,3 30 0 0,0
22.11.2020 08:00:00 5,2 0,5 - - 16 9 - - W 1022,8 35 0 0,0
22.11.2020 07:00:00 4,7 0,5 - - 13 7 - - W 1022,5 35 0 0,0
22.11.2020 06:00:00 5,2 0,5 - - 24 13 - - W 1021,3 40 0 0,0
22.11.2020 05:00:00 5,7 0,7 - - 22 12 - - W 1021,2 40 0 0,0
22.11.2020 04:00:00 5,7 0,6 - - 21 11 - - W 1021,7 40 0 0,0
22.11.2020 03:00:00 5,9 1,2 - - 16 9 - - W 1021,6 35 0 0,0
22.11.2020 02:00:00 5,9 1,1 - - 21 11 - - W 1021,2 35 0 0,0
22.11.2020 01:00:00 6,0 0,8 - - 11 6 - - WNW 1021,1 40 0 0,0
22.11.2020 00:00:00 6,6 2,6 - - 15 8 - - WNW 1020,6 30 - 0,0
21.11.2020 23:00:00 5,8 2,0 - - 9 5 - - W 1020,4 40 0 0,0
21.11.2020 22:00:00 6,6 1,0 - - 5 3 - - WNW 1020,2 55 0 0,0
21.11.2020 21:00:00 6,6 2,6 - - 13 7 - - W 1020,0 45 0 0,0
21.11.2020 20:00:00 7,1 4,5 - - 8 4 - - WNW 1019,8 25 0 0,4
21.11.2020 19:00:00 7,7 5,2 - - 15 8 - - W 1019,5 4,2 0 0,0
21.11.2020 18:00:00 7,6 3,5 - - 18 10 - - W 1019,3 50 0 0,0
21.11.2020 17:00:00 7,6 3,5 - - 13 7 - - W 1019,2 55 0 0,0
21.11.2020 16:00:00 6,1 3,0 - - 2 1 - - S 1019,1 45 12 0,0
21.11.2020 15:00:00 8,8 3,5 - - 9 5 - - W 1018,5 60 54 0,0
21.11.2020 14:00:00 9,7 4,5 - - 18 10 - - W 1018,4 60 60 0,0
21.11.2020 13:00:00 9,8 4,9 - - 16 9 - - WNW 1018,2 75 48 0,0
21.11.2020 12:00:00 9,7 7,1 - - 16 9 48 26 W 1018,1 75 0 0,4
21.11.2020 11:00:00 9,9 8,7 - - 31 17 61 33 WSW 1017,6 2,2 0 0,6
21.11.2020 10:00:00 9,6 8,4 - - 42 23 65 35 SW 1017,1 3,6 0 1,2
21.11.2020 09:00:00 9,4 8,3 8,4 9,4 37 20 63 34 SW 1016,9 2,0 0 1,0
21.11.2020 08:00:00 9,2 8,2 - - 37 20 65 35 SW 1016,6 1,5 0 0,8
21.11.2020 07:00:00 9,2 8,1 - - 44 24 63 34 SW 1016,8 0,9 0 1,4
21.11.2020 06:00:00 9,4 8,2 - - 48 26 68 37 SW 1016,2 2,0 0 1,0
21.11.2020 05:00:00 9,6 8,3 - - 44 24 76 41 SW 1016,6 2,6 0 0,8
21.11.2020 04:00:00 9,9 8,6 - - 42 23 72 39 WSW 1016,5 2,3 0 0,8
21.11.2020 03:00:00 9,8 8,7 - - 48 26 76 41 SW 1017,1 3,0 0 1,0
21.11.2020 02:00:00 10,0 8,8 - - 24 13 48 26 SW 1018,7 1,4 0 1,0
21.11.2020 01:00:00 10,1 8,9 - - 26 14 46 25 SW 1019,1 2,9 0 0,2
21.11.2020 00:00:00 10,0 8,7 - - 35 19 70 38 SW 1019,6 4,3 - 0,0
20.11.2020 23:00:00 10,0 8,8 - - 41 22 65 35 SW 1019,0 21 0 0,0
20.11.2020 22:00:00 10,2 8,6 - - 26 14 52 28 SW 1020,3 8 0 0,0
20.11.2020 21:00:00 10,1 9,0 - - 18 10 57 31 SW 1021,0 17 0 0,0
20.11.2020 20:00:00 10,4 8,7 - - 34 18 55 30 SW 1021,4 17 0 0,0
20.11.2020 19:00:00 10,3 9,0 - - 35 19 63 34 SW 1021,6 17 0 0,0
20.11.2020 18:00:00 10,4 9,1 - - 37 20 55 30 WSW 1021,9 3,9 0 0,2
20.11.2020 17:00:00 10,6 9,4 - - 28 15 - - SW 1021,7 5 0 0,2
20.11.2020 16:00:00 10,3 9,6 - - 26 14 - - WSW 1021,7 8 0 0,0
20.11.2020 15:00:00 8,9 8,2 - - 24 13 - - SW 1022,0 4,0 0 0,2
20.11.2020 14:00:00 8,3 7,5 - - 26 14 65 35 SSW 1022,8 2,0 0 0,0
20.11.2020 13:00:00 8,2 7,5 - - 44 24 63 34 SSW 1023,3 2,3 0 0,2
20.11.2020 12:00:00 7,4 6,8 - - 24 13 50 27 SSW 1025,2 1,3 0 0,2
20.11.2020 11:00:00 6,9 6,1 - - 35 19 52 28 SSW 1025,6 4,3 0 0,0
20.11.2020 10:00:00 6,2 5,3 - - 29 16 - - SSW 1025,8 3,7 0 0,0
20.11.2020 09:00:00 5,4 4,9 8,4 9,5 26 14 - - S 1026,8 2,6 0 0,2
20.11.2020 08:00:00 4,8 4,4 - - 15 8 - - S 1027,7 2,7 0 0,4
20.11.2020 07:00:00 4,3 3,8 - - 15 8 - - S 1028,5 2,5 0 0,2
20.11.2020 06:00:00 4,3 3,7 - - 31 17 - - SSW 1028,3 2,6 0 0,0
20.11.2020 05:00:00 3,8 2,7 - - 16 9 - - SSE 1029,2 4,3 0 0,0
20.11.2020 04:00:00 3,2 1,8 - - 5 3 - - S 1030,2 30 0 0,0
20.11.2020 03:00:00 1,8 1,4 - - 4 2 - - ESE 1031,0 18 0 0,0
20.11.2020 02:00:00 1,2 0,1 - - 4 2 - - SSE 1031,8 29 0 0,0
20.11.2020 01:00:00 0,8 -0,8 - - 9 5 - - S 1032,4 40 0 0,0
20.11.2020 00:00:00 2,8 0,4 - - 13 7 - - WSW 1032,6 55 - 0,0
19.11.2020 23:00:00 2,3 -0,2 - - 15 8 - - WSW 1033,2 60 0 0,0
19.11.2020 22:00:00 2,0 -1,2 - - 8 4 - - SSW 1033,2 60 0 0,0
19.11.2020 21:00:00 2,7 -0,5 - - 5 3 - - WSW 1033,2 30 0 0,0
19.11.2020 20:00:00 3,1 -0,6 - - 5 3 - - WSW 1032,9 70 0 0,0
19.11.2020 19:00:00 1,4 -1,3 - - 2 1 - - NE 1032,4 65 0 0,0
19.11.2020 18:00:00 1,3 -0,9 - - 4 2 - - S 1032,2 65 0 0,0
19.11.2020 17:00:00 2,2 -1,5 - - 5 3 - - W 1031,8 70 0 0,0
19.11.2020 16:00:00 2,4 -2,3 - - 9 5 - - W 1031,7 75 6 0,0
19.11.2020 15:00:00 3,7 -1,9 - - 13 7 - - W 1030,5 75 42 0,0
19.11.2020 14:00:00 4,7 -1,7 - - 9 5 - - N 1028,8 65 30 0,0
19.11.2020 13:00:00 4,5 -2,7 - - 15 8 - - NW 1029,7 75 12 0,0
19.11.2020 12:00:00 4,5 -2,2 - - 21 11 - - NNW 1029,0 75 54 0,0
19.11.2020 11:00:00 3,9 -0,9 - - 21 11 - - NNW 1027,9 70 60 0,0
19.11.2020 10:00:00 3,6 -0,1 - - 16 9 - - NNW 1025,7 50 60 0,0
19.11.2020 09:00:00 2,4 -0,2 9,0 9,5 9 5 - - NNW 1024,4 50 12 0,0
19.11.2020 08:00:00 2,6 1,0 - - 16 9 - - NNW 1022,7 75 0 0,2
19.11.2020 07:00:00 3,5 2,0 - - 21 11 - - NNW 1020,5 75 0 0,2
19.11.2020 06:00:00 4,6 2,1 - - 22 12 - - N 1018,7 75 0 0,0
19.11.2020 05:00:00 5,5 3,8 - - 18 10 - - N 1016,4 75 0 0,6
19.11.2020 04:00:00 6,3 4,6 - - 13 7 - - NW 1013,2 3,2 0 0,4
19.11.2020 03:00:00 7,1 4,3 - - 11 6 - - WNW 1011,1 70 0 0,0
19.11.2020 02:00:00 6,7 4,6 - - 16 9 - - WNW 1008,8 65 0 0,0
19.11.2020 01:00:00 7,2 4,7 - - 24 13 - - WNW 1006,8 75 0 0,0
19.11.2020 00:00:00 7,5 5,1 - - 21 11 46 25 W 1005,3 26 - 0,8
18.11.2020 23:00:00 7,2 5,8 - - 28 15 59 32 WSW 1004,5 4,5 0 1,4
18.11.2020 22:00:00 7,1 5,8 - - 34 18 57 31 SW 1004,8 4,9 0 3,6
18.11.2020 21:00:00 7,0 4,5 - - 37 20 57 31 SW 1005,5 5 0 0,4
18.11.2020 20:00:00 6,7 3,8 - - 28 15 48 26 WSW 1005,9 18 0 0,2
18.11.2020 19:00:00 6,9 3,4 - - 26 14 57 31 WSW 1005,7 35 0 0,8
18.11.2020 18:00:00 6,8 4,6 - - 34 18 55 30 SW 1005,1 7 0 2,2
18.11.2020 17:00:00 7,0 3,3 - - 34 18 59 32 WSW 1005,2 30 0 1,0
18.11.2020 16:00:00 7,2 3,1 - - 28 15 55 30 WSW 1005,2 30 0 0,0
18.11.2020 15:00:00 8,2 5,2 - - 35 19 61 33 WSW 1004,4 30 0 0,6
18.11.2020 14:00:00 9,2 7,0 - - 29 16 50 27 WSW 1003,5 9 0 1,0
18.11.2020 13:00:00 10,3 9,2 - - 26 14 63 34 SW 1002,6 2,7 0 3,6
18.11.2020 12:00:00 11,9 11,0 - - 39 21 67 36 SSW 1002,0 1,3 0 3,4
18.11.2020 11:00:00 11,4 10,6 - - 42 23 61 33 S 1003,6 1,1 0 3,2
18.11.2020 10:00:00 10,9 10,2 - - 35 19 55 30 S 1004,5 2,1 0 2,4
18.11.2020 09:00:00 10,6 9,7 9,0 9,4 41 22 57 31 SSW 1005,6 2,4 0 2,2
18.11.2020 08:00:00 10,6 9,5 - - 46 25 67 36 SSW 1006,3 2,3 0 0,2
18.11.2020 07:00:00 10,6 9,0 - - 48 26 65 35 SSW 1006,4 30 0 0,0
18.11.2020 06:00:00 10,3 9,0 - - 42 23 59 32 SSW 1007,7 5 0 0,0
18.11.2020 05:00:00 10,1 8,9 - - 42 23 61 33 SSW 1008,5 25 0 0,0
18.11.2020 04:00:00 10,2 8,7 - - 37 20 54 29 SSW 1010,0 35 0 0,0
18.11.2020 03:00:00 10,1 8,7 - - 37 20 57 31 SSW 1011,1 30 0 0,0

tt = temperature
td = dewpoint
tt -20cm = temperature -20cm
tt -100cm = temperature -100cm
ff = wind speed
fx = gusts
dd = wind direction
ppp = reduced air pressure
vv = visibility
sd = sunshine duration
rr = precipitation

Next stations